K0IBM Weather Reports


time (UTC)temp
C
wind
direction
speed
KPH
gust
KPH
rain 1hr
cm
rain 24hr
cm
rain mn
cm
humidity
%
barometer
mb
20260505112042 5 39 0.0 8.0 0.08 0.38 0.08 92 1013.2
20260505111548 5 251 0.0 8.0 0.08 0.38 0.08 92 1013.1
20260505111042 5 237 0.0 8.0 0.08 0.38 0.08 92 1013.0
20260505110544 5 277 0.0 9.7 0.08 0.38 0.08 91 1013.0
20260505110106 5 178 1.6 9.7 0.08 0.38 0.08 91 1012.9
20260505102042 6 115 1.6 4.8 0.00 0.30 0.00 92 1012.0
20260505101547 6 244 0.0 4.8 0.00 0.30 0.00 92 1011.9
20260505101047 6 281 0.0 4.8 0.00 0.30 0.00 92 1011.9
20260505100542 7 249 0.0 4.8 0.00 0.30 0.00 91 1011.9
20260505100052 7 0 1.6 4.8 0.00 0.30 0.00 91 1011.8
20260505095827 7 0 0.0 4.8 0.00 0.30 0.00 91 1011.8
20260505095044 7 0 0.0 4.8 0.00 0.30 0.00 91 1011.8
20260505094548 7 275 0.0 4.8 0.00 0.30 0.00 90 1011.9
20260505094045 7 284 0.0 4.8 0.00 0.30 0.00 90 1011.8
20260505093544 7 318 0.0 4.8 0.00 0.30 0.00 90 1011.8
20260505093057 7 0 0.0 3.2 0.00 0.30 0.00 90 1011.8
20260505092544 7 0 0.0 4.8 0.00 0.30 0.00 90 1011.9
20260505092042 7 0 0.0 4.8 0.00 0.30 0.00 89 1011.8
20260505091555 7 0 0.0 3.2 0.00 0.30 0.00 90 1011.7
20260505091041 7 0 0.0 3.2 0.00 0.30 0.00 90 1011.6
20260505090542 8 0 0.0 8.0 0.00 0.30 0.00 90 1011.6
20260505090051 8 0 1.6 9.7 0.00 0.30 0.00 90 1011.5
20260505085545 8 59 0.0 9.7 0.00 0.30 0.00 92 1011.5
20260505085046 8 0 1.6 9.7 0.00 0.30 0.00 92 1011.7
20260505084548 8 0 0.0 0.0 0.00 0.30 0.00 92 1011.7
20260505084044 8 0 0.0 0.0 0.00 0.30 0.00 93 1011.8
20260505083547 8 0 0.0 0.0 0.00 0.30 0.00 93 1011.9
20260505083051 8 0 0.0 0.0 0.00 0.30 0.00 93 1011.8
20260505082544 8 0 0.0 0.0 0.00 0.30 0.00 93 1011.8
20260505082041 8 0 0.0 0.0 0.00 0.30 0.00 93 1011.9
20260505081554 8 0 0.0 0.0 0.00 0.30 0.00 93 1011.9
20260505081044 8 0 0.0 0.0 0.00 0.30 0.00 92 1011.9
20260505080543 8 0 0.0 0.0 0.00 0.30 0.00 92 1011.9
20260505080055 8 0 0.0 0.0 0.00 0.30 0.00 92 1011.8
20260505075543 8 0 0.0 0.0 0.00 0.30 0.00 92 1011.7
20260505075045 8 0 0.0 0.0 0.00 0.30 0.00 92 1011.8
20260505074551 8 0 0.0 0.0 0.00 0.30 0.00 92 1011.9
20260505074046 8 0 0.0 0.0 0.00 0.30 0.00 92 1011.8
20260505073545 8 0 0.0 0.0 0.00 0.30 0.00 92 1011.9
20260505073053 8 0 0.0 3.2 0.00 0.30 0.00 92 1012.0
20260505072542 8 0 0.0 3.2 0.00 0.30 0.00 92 1012.1
20260505072048 8 0 0.0 3.2 0.00 0.30 0.00 92 1012.1
20260505071554 8 0 0.0 6.4 0.00 0.30 0.00 92 1012.2
20260505071045 8 0 1.6 6.4 0.00 0.30 0.00 92 1012.2
20260505070547 8 161 0.0 3.2 0.00 0.30 0.00 92 1012.3
20260505070101 8 0 0.0 3.2 0.00 0.30 0.00 92 1012.3
20260505065544 8 0 0.0 3.2 0.00 0.30 0.00 92 1012.2
20260505065045 8 0 0.0 3.2 0.00 0.30 0.00 92 1012.3
20260505064550 8 0 0.0 3.2 0.00 0.30 0.00 92 1012.2
20260505064042 8 0 0.0 1.6 0.00 0.30 0.00 92 1012.2
20260505063545 8 0 0.0 1.6 0.00 0.30 0.00 92 1012.4
20260505063056 8 0 0.0 3.2 0.00 0.30 0.00 92 1012.4
20260505062545 8 0 0.0 3.2 0.03 0.30 0.00 92 1012.4
20260505062043 8 0 0.0 1.6 0.03 0.30 0.00 92 1012.4
20260505061558 8 0 0.0 0.0 0.03 0.30 0.00 92 1012.4
20260505061044 8 0 0.0 3.2 0.03 0.30 0.00 92 1012.4
20260505060547 8 0 0.0 3.2 0.03 0.30 0.00 92 1012.3
20260505060058 8 157 0.0 3.2 0.03 0.30 0.00 92 1012.4
20260505055545 8 0 0.0 4.8 0.05 0.30 0.30 92 1012.5
20260505055045 8 0 0.0 4.8 0.05 0.30 0.30 92 1012.4
20260505054554 8 0 0.0 3.2 0.05 0.30 0.30 92 1012.4
20260505054046 8 202 0.0 3.2 0.05 0.30 0.30 91 1012.1
20260505053541 8 0 0.0 0.0 0.08 0.30 0.30 91 1012.1
20260505053105 8 0 0.0 0.0 0.08 0.30 0.30 91 1012.3
20260505052545 8 0 0.0 0.0 0.05 0.28 0.28 91 1012.3
20260505052049 8 0 0.0 0.0 0.05 0.28 0.28 91 1012.2
20260505051556 8 0 0.0 0.0 0.08 0.28 0.28 91 1012.4
20260505051049 8 0 0.0 0.0 0.08 0.28 0.28 91 1012.6
20260505050541 8 0 0.0 1.6 0.08 0.28 0.28 91 1012.5
20260505041553 8 0 0.0 6.4 0.13 0.20 0.20 89 1012.9
20260505041044 8 244 0.0 6.4 0.13 0.20 0.20 88 1012.9
20260505040545 9 246 0.0 6.4 0.13 0.20 0.20 88 1012.8
20260505040052 9 0 1.6 6.4 0.10 0.18 0.18 87 1012.8
20260505035545 9 202 1.6 4.8 0.10 0.18 0.18 86 1012.7
20260505035044 10 244 0.0 4.8 0.08 0.15 0.15 85 1012.8
20260505034549 10 213 1.6 17.7 0.08 0.15 0.15 83 1012.8
20260505034045 10 254 1.6 17.7 0.05 0.13 0.13 82 1012.7
20260505033545 10 262 3.2 9.7 0.03 0.10 0.10 80 1012.8
20260505033054 11 236 1.6 6.4 0.00 0.08 0.08 77 1012.6
20260505032546 11 263 0.0 3.2 0.00 0.08 0.08 78 1012.5
20260505032044 10 0 0.0 3.2 0.00 0.08 0.08 78 1012.0
20260505031552 10 0 0.0 3.2 0.00 0.08 0.08 79 1011.8
20260505031045 10 0 0.0 3.2 0.00 0.08 0.08 79 1011.7
20260505030545 10 0 0.0 0.0 0.00 0.08 0.08 79 1011.6
20260505025547 10 0 0.0 3.2 0.00 0.08 0.08 79 1011.4
20260505025049 10 0 0.0 3.2 0.00 0.08 0.08 79 1011.4
20260505024557 10 0 0.0 4.8 0.00 0.08 0.08 80 1011.2
20260505024047 10 0 0.0 4.8 0.00 0.08 0.08 80 1011.1
20260505023546 10 175 0.0 1.6 0.00 0.08 0.08 82 1011.0
20260505023057 10 0 0.0 1.6 0.00 0.08 0.08 85 1011.0
20260505022545 10 0 0.0 0.0 0.00 0.08 0.08 86 1010.8
20260505022045 10 0 0.0 0.0 0.00 0.08 0.08 85 1010.9
20260505021600 10 0 0.0 0.0 0.00 0.08 0.08 85 1010.8
20260505021044 10 0 0.0 0.0 0.00 0.08 0.08 85 1010.7
20260505020545 10 0 0.0 0.0 0.00 0.08 0.08 85 1010.9
20260505020052 10 0 0.0 0.0 0.03 0.08 0.08 85 1011.0
20260505015545 10 0 0.0 0.0 0.03 0.08 0.08 84 1010.8
20260505015045 10 0 0.0 0.0 0.05 0.08 0.08 83 1010.7
20260505014549 10 0 0.0 0.0 0.08 0.08 0.08 82 1010.5
20260505014047 10 0 0.0 0.0 0.08 0.08 0.08 82 1010.3
20260505013544 11 0 0.0 3.2 0.08 0.08 0.08 81 1010.2
20260505013051 11 0 0.0 3.2 0.08 0.08 0.08 80 1010.2
20260505012545 11 0 0.0 3.2 0.08 0.08 0.08 79 1010.3
20260505012048 11 0 0.0 3.2 0.08 0.08 0.08 78 1010.3
20260505011553 11 44 0.0 3.2 0.08 0.08 0.08 77 1010.4
20260505011048 11 0 0.0 0.0 0.08 0.08 0.08 78 1010.7
20260505010546 12 0 0.0 1.6 0.08 0.08 0.08 75 1010.7
20260505010051 12 0 0.0 11.3 0.05 0.05 0.05 72 1010.8
20260505005545 12 0 1.6 11.3 0.03 0.03 0.03 66 1011.0
20260505005045 13 203 1.6 12.9 0.00 0.00 0.00 61 1011.0
20260505004551 14 245 1.6 14.5 0.00 0.00 0.00 58 1011.0
20260505004044 15 249 4.8 14.5 0.00 0.00 0.00 50 1011.0
20260505003548 16 81 0.0 6.4 0.00 0.00 0.00 45 1010.8
20260505003051 16 0 1.6 6.4 0.00 0.00 0.00 42 1010.6
20260505002544 16 0 1.6 4.8 0.00 0.00 0.00 39 1010.7
20260505002044 16 0 0.0 4.8 0.00 0.00 0.00 38 1010.4
20260505001550 16 0 0.0 6.4 0.00 0.00 0.00 39 1010.3
20260505001044 16 280 0.0 8.0 0.00 0.00 0.00 38 1010.1
20260505000544 16 0 1.6 8.0 0.00 0.00 0.00 37 1010.0
20260504235545 17 0 0.0 6.4 0.00 0.00 0.00 35 1009.7
20260504235045 17 313 0.0 8.0 0.00 0.00 0.00 34 1009.8
20260504234555 17 0 0.0 8.0 0.00 0.00 0.00 34 1009.6
20260504234043 17 128 1.6 8.0 0.00 0.00 0.00 34 1009.6
20260504233545 17 123 0.0 9.7 0.00 0.00 0.00 34 1009.6
20260504233054 17 0 1.6 9.7 0.00 0.00 0.00 33 1009.5
20260504232546 18 57 0.0 11.3 0.00 0.00 0.00 33 1009.3
20260504232046 18 0 1.6 11.3 0.00 0.00 0.00 32 1009.2
20260504231554 18 98 1.6 8.0 0.00 0.00 0.00 32 1009.3
20260504231044 18 0 0.0 6.4 0.00 0.00 0.00 32 1009.3
20260504230546 18 158 0.0 14.5 0.00 0.00 0.00 32 1009.1
20260504230051 18 201 0.0 14.5 0.00 0.00 0.00 32 1009.0
20260504225545 18 78 3.2 17.7 0.00 0.00 0.00 31 1008.9
20260504225048 18 202 3.2 17.7 0.00 0.00 0.00 32 1008.8
20260504224551 18 207 3.2 17.7 0.00 0.00 0.00 31 1008.9
20260504224045 18 63 3.2 14.5 0.00 0.00 0.00 31 1008.9
20260504223544 18 321 3.2 14.5 0.00 0.00 0.00 31 1008.9
20260504223051 18 41 1.6 11.3 0.00 0.00 0.00 32 1008.9
20260504222545 18 82 1.6 12.9 0.00 0.00 0.00 32 1008.9
20260504222044 18 84 3.2 12.9 0.00 0.00 0.00 31 1008.9
20260504221551 18 84 1.6 9.7 0.00 0.00 0.00 32 1008.5
20260504221045 18 238 1.6 9.7 0.00 0.00 0.00 32 1008.4
20260504220545 18 111 3.2 9.7 0.00 0.00 0.00 31 1008.3
20260504220115 18 69 1.6 9.7 0.00 0.00 0.00 30 1008.1
20260504215545 19 36 3.2 9.7 0.00 0.00 0.00 30 1008.2
20260504215044 20 87 3.2 9.7 0.00 0.00 0.00 28 1008.0
20260504214554 20 213 1.6 8.0 0.00 0.00 0.00 25 1007.8
20260504214044 20 205 0.0 6.4 0.00 0.00 0.00 25 1008.0
20260504213544 20 0 0.0 6.4 0.00 0.00 0.00 25 1008.0
20260504213101 20 91 1.6 6.4 0.00 0.00 0.00 25 1008.1
20260504212545 21 315 0.0 8.0 0.00 0.00 0.00 24 1008.1
20260504212045 21 0 1.6 8.0 0.00 0.00 0.00 25 1008.2
20260504211558 21 236 0.0 11.3 0.00 0.00 0.00 25 1008.3
20260504211046 21 117 1.6 11.3 0.00 0.00 0.00 25 1008.4
20260504210541 21 0 0.0 9.7 0.00 0.00 0.00 26 1008.5
20260504210051 21 78 1.6 9.7 0.00 0.00 0.00 25 1008.6
20260504205544 21 0 1.6 9.7 0.00 0.00 0.00 24 1008.5
20260504205044 20 54 1.6 9.7 0.00 0.00 0.00 26 1008.4
20260504204551 20 175 1.6 8.0 0.00 0.00 0.00 24 1008.7
20260504204045 20 0 1.6 8.0 0.00 0.00 0.00 24 1008.7
20260504203545 20 0 1.6 6.4 0.00 0.00 0.00 25 1008.7
20260504203050 20 112 1.6 6.4 0.00 0.00 0.00 26 1008.9
20260504202544 20 221 0.0 4.8 0.00 0.00 0.00 26 1008.7
20260504202045 20 0 0.0 9.7 0.00 0.00 0.00 29 1008.6
20260504201557 19 0 0.0 9.7 0.00 0.00 0.00 29 1008.6
20260504201045 19 278 1.6 12.9 0.00 0.00 0.00 28 1008.9
20260504200544 19 161 1.6 12.9 0.00 0.00 0.00 30 1009.0
20260504200054 18 267 3.2 8.0 0.00 0.00 0.00 30 1009.0
20260504195544 18 231 3.2 6.4 0.00 0.00 0.00 29 1009.0
20260504195044 18 236 1.6 14.5 0.00 0.00 0.00 28 1009.0
20260504194553 17 0 1.6 14.5 0.00 0.00 0.00 31 1009.0
20260504194045 17 249 3.2 11.3 0.00 0.00 0.00 33 1009.2
20260504193541 17 0 1.6 11.3 0.00 0.00 0.00 35 1009.2
20260504193052 17 0 1.6 32.2 0.00 0.00 0.00 42 1009.3
20260504192544 17 278 4.8 32.2 0.00 0.00 0.00 40 1009.8
20260504192044 19 255 4.8 16.1 0.00 0.00 0.00 25 1010.4
20260504191557 20 238 1.6 16.1 0.00 0.00 0.00 24 1009.5
20260504191044 20 145 1.6 11.3 0.00 0.00 0.00 23 1009.3
20260504190545 21 232 1.6 11.3 0.00 0.00 0.00 22 1009.1
20260504190107 21 0 0.0 4.8 0.00 0.00 0.00 20 1009.0
20260504185544 21 0 0.0 6.4 0.00 0.00 0.00 21 1008.9
20260504185044 21 203 0.0 6.4 0.00 0.00 0.00 22 1008.8
20260504184611 21 234 0.0 6.4 0.00 0.00 0.00 22 1008.8
20260504184045 21 0 0.0 8.0 0.00 0.00 0.00 22 1008.7
20260504183545 22 99 1.6 8.0 0.00 0.00 0.00 22 1008.8
20260504183104 22 181 1.6 12.9 0.00 0.00 0.00 21 1008.8
20260504182545 22 0 1.6 12.9 0.00 0.00 0.00 20 1008.8
20260504182044 22 217 0.0 12.9 0.00 0.00 0.00 21 1008.8
20260504181550 22 226 3.2 12.9 0.00 0.00 0.00 21 1008.7
20260504181044 23 0 0.0 9.7 0.00 0.00 0.00 21 1008.7
20260504180545 23 257 1.6 8.0 0.00 0.00 0.00 20 1008.7
20260504180051 23 57 1.6 8.0 0.00 0.00 0.00 19 1008.9
20260504175545 23 114 1.6 16.1 0.00 0.00 0.00 19 1008.8
20260504175045 23 238 1.6 16.1 0.00 0.00 0.00 20 1008.9
20260504174549 24 0 3.2 11.3 0.00 0.00 0.00 20 1009.0
20260504174044 24 265 1.6 8.0 0.00 0.00 0.00 19 1009.0
20260504173545 24 227 1.6 9.7 0.00 0.00 0.00 20 1009.2
20260504173056 23 66 1.6 11.3 0.00 0.00 0.00 22 1009.2
20260504172544 23 75 1.6 11.3 0.00 0.00 0.00 23 1009.4
20260504172044 23 214 3.2 11.3 0.00 0.00 0.00 21 1009.4
20260504171552 23 0 1.6 12.9 0.00 0.00 0.00 20 1009.4
20260504171045 23 0 1.6 12.9 0.00 0.00 0.00 21 1009.4
20260504170545 23 223 1.6 12.9 0.00 0.00 0.00 21 1009.4
20260504151048 18 250 1.6 6.4 0.00 0.00 0.00 26 1010.6
20260504150544 17 225 3.2 6.4 0.00 0.00 0.00 28 1010.5
20260504141044 12 152 1.6 6.4 0.00 0.00 0.00 41 1010.6
20260504140545 12 132 1.6 4.8 0.00 0.00 0.00 42 1010.7
20260504130543 9 0 0.0 8.0 0.00 0.00 0.00 51 1010.4